• In Hungary
  • List of Countries
  • For 7 days
  • Water Temperature
  • Satellite Maps
  • Weather Map
  • News
  • Weather Widgets
  • user-avatar
    Login

    Hourly Weather Oudenaarde

    Today, 23 September, Sunday

    Time Temperature Precipitation Wind Pressure Humidity
    00:00 +11°C° 0 mm 3 mps 759 mmHg 92%
    01:00 +11°C° 0.4 mm 3 mps 758 mmHg 92%
    02:00 +11°C° 0.4 mm 3 mps 758 mmHg 93%
    03:00 +12°C° 0.4 mm 2 mps 757 mmHg 93%
    04:00 +13°C° 0.4 mm 2 mps 757 mmHg 93%
    05:00 +13°C° 0.4 mm 2 mps 757 mmHg 93%
    06:00 +12°C° 0 mm 2 mps 757 mmHg 92%
    07:00 +12°C° 0.7 mm 2 mps 756 mmHg 93%
    08:00 +12°C° 0.7 mm 2 mps 756 mmHg 93%
    09:00 +12°C° 0.7 mm 2 mps 756 mmHg 93%
    10:00 +11°C° 1.9 mm 3 mps 756 mmHg 92%
    11:00 +11°C° 1.9 mm 3 mps 756 mmHg 92%
    12:00 +11°C° 0 mm 4 mps 756 mmHg 92%
    13:00 +10°C° 0.8 mm 5 mps 757 mmHg 91%
    14:00 +10°C° 0.8 mm 6 mps 758 mmHg 90%
    15:00 +10°C° 0.8 mm 6 mps 759 mmHg 89%
    16:00 +10°C° 0.4 mm 6 mps 761 mmHg 87%
    17:00 +10°C° 0.4 mm 5 mps 762 mmHg 86%
    18:00 +10°C° 0.4 mm 5 mps 763 mmHg 84%
    19:00 +10°C° 0.2 mm 4 mps 765 mmHg 84%
    20:00 +10°C° 0.2 mm 4 mps 766 mmHg 84%
    21:00 +10°C° 0.2 mm 4 mps 767 mmHg 84%
    22:00 +9°C° 0 mm 3 mps 768 mmHg 84%
    23:00 +9°C° 0 mm 3 mps 769 mmHg 84%

    Tomorrow, 24 September, Monday

    Time Temperature Precipitation Wind Pressure Humidity
    00:00 +9°C° 0 mm 3 mps 770 mmHg 84%
    01:00 +9°C° 0 mm 3 mps 770 mmHg 84%
    02:00 +8°C° 0 mm 2 mps 771 mmHg 84%
    03:00 +8°C° 0 mm 2 mps 772 mmHg 83%
    04:00 +8°C° 0 mm 2 mps 772 mmHg 83%
    05:00 +8°C° 0 mm 2 mps 773 mmHg 84%
    06:00 +8°C° 0 mm 2 mps 773 mmHg 84%
    07:00 +10°C° 0.1 mm 3 mps 774 mmHg 78%
    08:00 +12°C° 0.1 mm 3 mps 774 mmHg 72%
    09:00 +14°C° 0.1 mm 4 mps 775 mmHg 66%
    10:00 +14°C° 0 mm 4 mps 775 mmHg 63%
    11:00 +15°C° 0 mm 5 mps 775 mmHg 59%
    12:00 +15°C° 0 mm 5 mps 775 mmHg 55%
    13:00 +15°C° 0.1 mm 5 mps 775 mmHg 56%
    14:00 +15°C° 0.1 mm 5 mps 775 mmHg 56%
    15:00 +15°C° 0.1 mm 5 mps 775 mmHg 57%
    16:00 +13°C° 0 mm 4 mps 775 mmHg 62%
    17:00 +12°C° 0 mm 4 mps 775 mmHg 66%
    18:00 +11°C° 0 mm 3 mps 775 mmHg 71%
    19:00 +10°C° 0 mm 3 mps 776 mmHg 73%
    20:00 +9°C° 0 mm 2 mps 776 mmHg 74%
    21:00 +9°C° 0 mm 2 mps 777 mmHg 75%
    22:00 +9°C° 0 mm 1 mps 777 mmHg 76%
    23:00 +9°C° 0 mm 1 mps 777 mmHg 78%

    Day after tomorrow, 25 September, Tuesday

    Time Temperature Precipitation Wind Pressure Humidity
    00:00 +9°C° 0 mm 1 mps 777 mmHg 80%
    01:00 +9°C° 0 mm 1 mps 777 mmHg 81%
    02:00 +8°C° 0 mm 1 mps 777 mmHg 82%
    03:00 +8°C° 0 mm 1 mps 777 mmHg 83%
    04:00 +8°C° 0 mm 1 mps 777 mmHg 84%
    05:00 +8°C° 0 mm 1 mps 777 mmHg 84%
    06:00 +8°C° 0 mm 1 mps 777 mmHg 85%
    07:00 +10°C° 0 mm 1 mps 777 mmHg 78%
    08:00 +11°C° 0 mm 1 mps 777 mmHg 71%
    09:00 +13°C° 0 mm 1 mps 777 mmHg 64%
    10:00 +14°C° 0 mm 2 mps 777 mmHg 59%
    11:00 +15°C° 0 mm 2 mps 777 mmHg 54%
    12:00 +16°C° 0 mm 2 mps 776 mmHg 49%
    13:00 +16°C° 0 mm 2 mps 776 mmHg 48%
    14:00 +17°C° 0 mm 2 mps 775 mmHg 47%
    15:00 +17°C° 0 mm 2 mps 775 mmHg 46%
    16:00 +15°C° 0 mm 2 mps 775 mmHg 51%
    17:00 +14°C° 0 mm 2 mps 775 mmHg 55%
    18:00 +12°C° 0 mm 2 mps 775 mmHg 60%
    19:00 +12°C° 0 mm 2 mps 775 mmHg 62%
    20:00 +10°C° 0 mm 2 mps 775 mmHg 63%
    21:00 +10°C° 0 mm 2 mps 775 mmHg 65%
    22:00 +9°C° 0 mm 2 mps 775 mmHg 67%
    23:00 +9°C° 0 mm 2 mps 775 mmHg 68%

    26 September, Wednesday

    Time Temperature Precipitation Wind Pressure Humidity
    00:00 +8°C° 0 mm 2 mps 774 mmHg 70%
    01:00 +8°C° 0 mm 2 mps 774 mmHg 70%
    02:00 +8°C° 0 mm 2 mps 774 mmHg 70%
    03:00 +8°C° 0 mm 2 mps 774 mmHg 71%
    04:00 +8°C° 0 mm 2 mps 773 mmHg 70%
    05:00 +7°C° 0 mm 2 mps 773 mmHg 70%
    06:00 +7°C° 0 mm 2 mps 773 mmHg 70%
    07:00 +9°C° 0 mm 2 mps 773 mmHg 64%
    08:00 +12°C° 0 mm 2 mps 773 mmHg 58%
    09:00 +14°C° 0 mm 2 mps 773 mmHg 52%
    10:00 +16°C° 0 mm 2 mps 773 mmHg 49%
    11:00 +17°C° 0 mm 2 mps 773 mmHg 45%
    12:00 +19°C° 0 mm 2 mps 773 mmHg 41%
    13:00 +19°C° 0 mm 2 mps 772 mmHg 41%
    14:00 +19°C° 0 mm 2 mps 772 mmHg 40%
    15:00 +20°C° 0 mm 2 mps 771 mmHg 40%
    16:00 +18°C° 0 mm 2 mps 771 mmHg 44%
    17:00 +16°C° 0 mm 1 mps 771 mmHg 49%
    18:00 +15°C° 0 mm 1 mps 771 mmHg 53%
    19:00 +14°C° 0 mm 1 mps 771 mmHg 54%
    20:00 +14°C° 0 mm 1 mps 771 mmHg 55%
    21:00 +13°C° 0 mm 1 mps 771 mmHg 56%
    22:00 +13°C° 0 mm 2 mps 771 mmHg 58%
    23:00 +12°C° 0 mm 2 mps 771 mmHg 59%

    27 September, Thursday

    Time Temperature Precipitation Wind Pressure Humidity
    00:00 +12°C° 0 mm 2 mps 771 mmHg 60%
    01:00 +12°C° 0 mm 2 mps 771 mmHg 60%
    02:00 +10°C° 0 mm 2 mps 770 mmHg 61%
    03:00 +10°C° 0 mm 2 mps 770 mmHg 61%
    04:00 +10°C° 0 mm 2 mps 770 mmHg 62%
    05:00 +9°C° 0 mm 2 mps 769 mmHg 63%
    06:00 +9°C° 0 mm 2 mps 769 mmHg 64%
    07:00 +12°C° 0 mm 2 mps 769 mmHg 60%
    08:00 +13°C° 0 mm 3 mps 769 mmHg 56%
    09:00 +16°C° 0 mm 3 mps 769 mmHg 52%
    10:00 +18°C° 0 mm 3 mps 768 mmHg 48%
    11:00 +19°C° 0 mm 3 mps 768 mmHg 44%
    12:00 +21°C° 0 mm 3 mps 768 mmHg 40%
    13:00 +21°C° 0 mm 3 mps 767 mmHg 40%
    14:00 +21°C° 0 mm 2 mps 767 mmHg 41%
    15:00 +21°C° 0 mm 2 mps 766 mmHg 41%
    16:00 +19°C° 0 mm 2 mps 766 mmHg 47%
    17:00 +17°C° 0 mm 2 mps 766 mmHg 53%
    18:00 +15°C° 0 mm 1 mps 766 mmHg 59%
    19:00 +15°C° 0 mm 1 mps 766 mmHg 62%
    20:00 +14°C° 0 mm 1 mps 766 mmHg 65%
    21:00 +13°C° 0 mm 1 mps 766 mmHg 68%
    22:00 +13°C° 0 mm 1 mps 766 mmHg 69%
    23:00 +13°C° 0 mm 1 mps 766 mmHg 70%

    28 September, Friday

    Time Temperature Precipitation Wind Pressure Humidity
    00:00 +12°C° 0 mm 1 mps 766 mmHg 72%
    01:00 +12°C° 0 mm 1 mps 766 mmHg 73%
    02:00 +12°C° 0 mm 1 mps 766 mmHg 75%
    03:00 +12°C° 0 mm 2 mps 766 mmHg 77%
    04:00 +12°C° 0 mm 2 mps 766 mmHg 79%
    05:00 +12°C° 0 mm 2 mps 766 mmHg 82%
    06:00 +11°C° 0 mm 3 mps 767 mmHg 84%
    07:00 +12°C° 0 mm 3 mps 767 mmHg 83%
    08:00 +13°C° 0 mm 4 mps 767 mmHg 82%
    09:00 +14°C° 0 mm 5 mps 767 mmHg 81%
    10:00 +13°C° 0.1 mm 5 mps 767 mmHg 81%
    11:00 +13°C° 0.1 mm 5 mps 768 mmHg 80%
    12:00 +13°C° 0.1 mm 5 mps 768 mmHg 80%
    13:00 +13°C° 0.1 mm 5 mps 768 mmHg 78%
    14:00 +13°C° 0.1 mm 5 mps 768 mmHg 76%
    15:00 +13°C° 0.1 mm 5 mps 768 mmHg 74%
    16:00 +12°C° 0 mm 5 mps 768 mmHg 72%
    17:00 +12°C° 0 mm 4 mps 768 mmHg 71%
    18:00 +11°C° 0 mm 4 mps 769 mmHg 70%
    19:00 +11°C° 0 mm 4 mps 769 mmHg 70%
    20:00 +10°C° 0 mm 4 mps 770 mmHg 71%
    21:00 +10°C° 0 mm 4 mps 770 mmHg 72%
    22:00 +8°C° 0 mm 4 mps 770 mmHg 75%
    23:00 +8°C° 0 mm 4 mps 770 mmHg 77%
    Show more